Home > Weather > Limoges > Past weeks

Flag for France Past Weather in Limoges, Limousin, France — Yesterday and Last 2 Weeks

Now
72 °F

Sunny.


Feels Like: 76 °F
Forecast: 60 / 76 °F
Wind: 5 mph from Northwest

Location: Limoges Airport

Current Time: Jul 27, 2016 at 9:20:01 PM

Latest Report: Jul 27, 2016 at 9:00 PM


Visibility: 10 mi

Pressure: 30.12 "Hg

Humidity: 57%

Dew Point: 55 °F

Location of LimogesLocation

Past Weather in Limoges — Graph

°F

Limoges Temperature Yesterday

Maximum temperature yesterday: 81 °F (at 5:30 PM)
Minimum temperature yesterday: 63 °F (at 3:30 AM)
Average temperature yesterday: 71 °F

High & Low Weather Summary for the Past Weeks

 TemperatureHumidityPressure
High95 °F (Jul 19, 2:30 PM)100% (Jul 14, 5:00 AM)30.36 "Hg (Jul 14, 5:00 AM)
Low48 °F (Jul 14, 7:00 AM)20% (Jul 19, 3:30 PM)29.98 "Hg (Jul 19, 7:00 PM)
Average69 °F62%30.15 "Hg
* Reported Jul 12 8:00 PM — Jul 27 8:00 PM, Limoges, Weather by CustomWeather, © 2016

Note: Actual official high and low records may vary slightly from our data, if they occured in-between our weather recording intervals... More about our weather records

Advertising

Limoges Weather History for the Previous 24 Hours

Scroll right to see more
 ConditionsComfort  
Time TempWeatherWind HumidityBarometerVisibility
8:00 PM
Wed, Jul 27
75 °FPassing clouds.6 mph47%30.12 "HgN/A
7:30 PM77 °FPassing clouds.9 mph47%30.12 "HgN/A
7:00 PM75 °FPassing clouds.6 mph50%30.12 "HgN/A
6:30 PM75 °FPassing clouds.7 mph47%30.12 "HgN/A
6:00 PM77 °FPassing clouds.6 mph47%30.15 "HgN/A
5:30 PM77 °FPassing clouds.9 mph47%30.15 "HgN/A
5:00 PM77 °FPassing clouds.7 mph44%30.15 "HgN/A
4:30 PM77 °FPassing clouds.8 mph51%30.15 "HgN/A
4:00 PM75 °FPassing clouds.8 mph50%30.15 "HgN/A
3:30 PM77 °FSunny.7 mph44%30.15 "Hg10 mi
3:00 PM75 °FPassing clouds.7 mph44%30.15 "HgN/A
2:30 PM75 °FSunny.6 mph47%30.15 "Hg10 mi
2:00 PM75 °FPassing clouds.7 mph50%30.18 "HgN/A
1:30 PM75 °FPassing clouds.6 mph47%30.18 "HgN/A
1:00 PM73 °FBroken clouds.7 mph53%30.18 "HgN/A
12:30 PM73 °FScattered clouds.6 mph53%30.18 "HgN/A
12:00 PM72 °FPassing clouds.5 mph57%30.18 "HgN/A
11:30 AM72 °FPassing clouds.6 mph57%30.18 "HgN/A
11:00 AM70 °FPassing clouds.6 mph69%30.18 "HgN/A
10:30 AM70 °FSunny.3 mph69%30.18 "Hg10 mi
10:00 AM66 °FSunny.2 mph78%30.18 "Hg10 mi
9:30 AM66 °FSunny.No wind73%30.18 "Hg10 mi
9:00 AM64 °FSunny.No wind78%30.15 "Hg10 mi
8:30 AM64 °FSunny.No wind73%30.15 "Hg10 mi
8:00 AM63 °FSunny.1 mph73%30.15 "Hg10 mi
7:30 AM61 °FClear.No wind77%30.15 "Hg10 mi
7:00 AM61 °FClear.2 mph77%30.15 "Hg10 mi
6:30 AM63 °FClear.2 mph73%30.15 "Hg10 mi
6:00 AM64 °FClear.3 mph68%30.15 "Hg10 mi
5:30 AM64 °FClear.5 mph68%30.15 "Hg10 mi
5:00 AM63 °FClear.7 mph73%30.15 "Hg10 mi
4:30 AM64 °FClear.5 mph68%30.15 "Hg10 mi
4:00 AM64 °FClear.5 mph68%30.15 "Hg10 mi
3:30 AM64 °FClear.6 mph68%30.15 "Hg10 mi
3:00 AM64 °FClear.7 mph68%30.15 "Hg10 mi
2:30 AM64 °FPassing clouds.8 mph68%30.18 "HgN/A
2:00 AM66 °FClear.7 mph64%30.18 "Hg10 mi
1:30 AM66 °FClear.8 mph64%30.18 "Hg10 mi
1:00 AM66 °FClear.8 mph64%30.18 "Hg10 mi
12:30 AM68 °FClear.6 mph60%30.18 "Hg10 mi
12:00 AM68 °FClear.5 mph64%30.18 "Hg10 mi
11:30 PM
Tue, Jul 26
68 °FPassing clouds.7 mph64%30.18 "HgN/A
11:00 PM70 °FClear.7 mph60%30.18 "Hg10 mi
10:30 PM70 °FSunny.7 mph60%30.18 "Hg10 mi
10:00 PM70 °FSunny.5 mph60%30.15 "Hg10 mi
9:30 PM72 °FPassing clouds.5 mph57%30.15 "HgN/A
9:00 PM73 °FPassing clouds.3 mph57%30.15 "HgN/A
Weather by CustomWeather, © 2016

See weather overviewHow to use our weather pages